Regional Weather Roundup
Issued by NWS Little Rock, AR

Home | Current Version | Previous Version | Graphics & Text | Print | Product List | Glossary On
Versions: 1 2 3 4 5 6 7 8 9 10 11 12 13 14 15 16 17 18 19 20 21 22 23 24 25 26 27 28 29 30 31 32
000
ASUS44 KLZK 261205
RWRLZK

WEATHER ROUNDUP FOR ARKANSAS
NATIONAL WEATHER SERVICE LITTLE ROCK AR
700 AM CDT WED APR 26 2017

NOTE: "FAIR" INDICATES FEW OR NO CLOUDS BELOW 12,000 FEET WITH NO
SIGNIFICANT WEATHER AND/OR OBSTRUCTIONS TO VISIBILITY.

ARZ001-003-010-029-261300-
NORTHWEST ARKANSAS

CITY           SKY/WX    TMP DP  RH WIND       PRES   REMARKS
FAYETTEVILLE   TSTM      59  59 100 NW6       29.49R VSB 3/4
6HR MIN TEMP:  57; 6HR MAX TEMP:  70; 6HR PCP:  1.93;

FORT SMITH     LGT RAIN  65  62  90 N17       29.45R
6HR MIN TEMP:  64; 6HR MAX TEMP:  75; 6HR PCP:  0.55;

HARRISON       CLOUDY    58  58 100 SE7       29.52F THUNDER
6HR MIN TEMP:  57; 6HR MAX TEMP:  69; 6HR PCP:  0.45;

BENTONVILLE    CLOUDY    59  57  94 CALM      29.50R THUNDER
6HR MIN TEMP:  57; 6HR MAX TEMP:  70; 6HR PCP:  0.77;

ROGERS         TSTM      59  58  96 SE9       29.52R
SILOAM SPGS    CLOUDY    57  54  88 CALM      29.47F THUNDER
6HR MIN TEMP:  57; 6HR MAX TEMP:  63; 6HR PCP:  0.88;

HIGHFILL       TSTM      59  59 100 N7        29.48R FOG
6HR MIN TEMP:  58; 6HR MAX TEMP:  70; 6HR PCP:  1.00;

SPRINGDALE     RAIN      59  59 100 SE6G13    29.51S FOG
$$

ARZ004-005-016-261300-
NORTH CENTRAL ARKANSAS

CITY           SKY/WX    TMP DP  RH WIND       PRES   REMARKS
BATESVILLE     CLOUDY   N/A N/A N/A SE7       29.57F
FLIPPIN        CLOUDY    61  54  77 CALM      29.51S
                                      6HR PCP:  0.16;

$$

ARZ040-041-261300-
WEST CENTRAL ARKANSAS

CITY           SKY/WX    TMP DP  RH WIND       PRES   REMARKS
MENA           CLOUDY    72  70  94 S3        29.50F
MOUNT IDA      CLOUDY    70  66  87 SE6       29.49F
6HR MIN TEMP:  69; 6HR MAX TEMP:  74; 6HR PCP:  0.01;

$$

ARZ009-017-025-026-028-261300-
NORTHEAST ARKANSAS

CITY           SKY/WX    TMP DP  RH WIND       PRES   REMARKS
JONESBORO      CLOUDY    67  61  81 N5        29.61S
6HR MIN TEMP:  67; 6HR MAX TEMP:  71;

WALNUT RIDGE   CLEAR     66  59  77 SE13      29.57F
6HR MIN TEMP:  64; 6HR MAX TEMP:  70; 6HR PCP:  0.01;

BLYTHEVILLE    PTCLDY    64  59  83 S8        29.64S
6HR MIN TEMP:  64; 6HR MAX TEMP:  69;

$$

ARZ022-023-033-042-044-261300-
CENTRAL ARKANSAS

CITY           SKY/WX    TMP DP  RH WIND       PRES   REMARKS
LITTLE ROCK    CLOUDY    68  64  87 SE13      29.57S
6HR MIN TEMP:  68; 6HR MAX TEMP:  72;

N LITTLE ROCK    N/A     68  63  84 SE9       29.57S
6HR MIN TEMP:  68; 6HR MAX TEMP:  72;

JACKSONVILLE   CLOUDY    69  64  83 SE7       29.57S
6HR MIN TEMP:  69; 6HR MAX TEMP:  73;

CONWAY           N/A     70  64  83 SE9G16    29.53F
SEARCY         CLOUDY    69  64  84 S9        29.60F
6HR MIN TEMP:  69; 6HR MAX TEMP:  72;

HOT SPRINGS    CLOUDY    70  67  90 SE7       29.54F
6HR MIN TEMP:  70; 6HR MAX TEMP:  74;

RUSSELLVILLE   CLOUDY    70  64  81 VRB6      29.50S
6HR MIN TEMP:  70; 6HR MAX TEMP:  74;

$$

ARZ036-261300-
EAST ARKANSAS

CITY           SKY/WX    TMP DP  RH WIND       PRES   REMARKS
WEST MEMPHIS   MOCLDY    65  61  87 S13       29.64S
6HR MIN TEMP:  64; 6HR MAX TEMP:  71;

$$

ARZ050-053-066-070-073-261300-
SOUTHWEST ARKANSAS

CITY           SKY/WX    TMP DP  RH WIND       PRES   REMARKS
ARKADELPHIA      N/A     69  66  90 SE5       29.55F
6HR MIN TEMP:  69; 6HR MAX TEMP:  73;

CAMDEN         CLOUDY    70  63  78 CALM      29.57R
TEXARKANA      LGT RAIN  69  68  96 SW3       29.53F FOG
6HR MIN TEMP:  68; 6HR MAX TEMP:  73; 6HR PCP:  0.01;

EL DORADO      CLOUDY    71  66  84 E3        29.57R
6HR MIN TEMP:  71; 6HR MAX TEMP:  72;

$$

ARZ056-057-069-261300-
SOUTHEAST ARKANSAS

CITY           SKY/WX    TMP DP  RH WIND       PRES   REMARKS
PINE BLUFF     CLOUDY    67  63  87 SE12      29.60R
6HR MIN TEMP:  67; 6HR MAX TEMP:  71; 6HR PCP: TRACE;

STUTTGART      CLOUDY    68  55  64 SE14      29.62R
6HR MIN TEMP:  68; 6HR MAX TEMP:  72;

MONTICELLO     CLOUDY    68  63  84 SE8       29.61R
6HR MIN TEMP:  68; 6HR MAX TEMP:  72;


$$






USA.gov is the U.S. government's official web portal to all federal, state and local government web resources and services.